GTI7172 RJAA-PANC

Flight info

Callsign GTI7172
Flight time 6h 7m
Altitude 33000
Route GULBO Y808 PUTER/N0502F340 A590 PASRO/N0498F350 A590 HAMND NEELL7
Aircraft B77L/H-SDE1E2E3FGHIJ2J3J4J5M1RWXY/LB1D1

Departure

Time 2026-05-07 22:23
Airport Narita International Airport (RJAA)

Arrival

Time 2026-05-08 04:31
Airport Ted Stevens Anchorage International Airport (PANC)
Time Latitude Longitude Altitude Speed Heading
2026-05-07 22:10 35.74814 140.39391 148 ft 0 kts 239°
2026-05-07 22:18 35.74816 140.39396 148 ft 4 kts 239°
2026-05-07 22:18 35.74844 140.39453 148 ft 4 kts 239°
2026-05-07 22:18 35.74862 140.39477 148 ft 4 kts 191°
2026-05-07 22:19 35.74884 140.39475 148 ft 0 kts 145°
2026-05-07 22:20 35.74840 140.39510 148 ft 17 kts 147°
2026-05-07 22:20 35.74678 140.39616 148 ft 35 kts 149°
2026-05-07 22:20 35.74504 140.39728 148 ft 17 kts 182°
2026-05-07 22:21 35.74428 140.39617 148 ft 18 kts 239°
2026-05-07 22:21 35.74373 140.39501 148 ft 16 kts 244°
2026-05-07 22:21 35.74341 140.39373 148 ft 16 kts 258°
2026-05-07 22:21 35.74402 140.39271 148 ft 16 kts 311°
2026-05-07 22:22 35.74383 140.39146 147 ft 16 kts 239°
2026-05-07 22:22 35.74397 140.39026 147 ft 17 kts 326°
2026-05-07 22:22 35.74526 140.38932 147 ft 37 kts 329°
2026-05-07 22:22 35.74942 140.38631 150 ft 101 kts 329°
2026-05-07 22:23 35.75697 140.38086 151 ft 153 kts 329°
2026-05-07 22:23 35.76716 140.37331 287 ft 177 kts 326°
2026-05-07 22:23 35.77793 140.36546 659 ft 184 kts 326°
2026-05-07 22:23 35.78914 140.35747 1105 ft 185 kts 328°
2026-05-07 22:24 35.80046 140.34941 1610 ft 189 kts 327°
2026-05-07 22:24 35.81195 140.34120 2125 ft 197 kts 328°
2026-05-07 22:24 35.82458 140.33211 2376 ft 222 kts 328°
2026-05-07 22:24 35.83872 140.32190 2684 ft 245 kts 328°
2026-05-07 22:25 35.85385 140.31096 3275 ft 258 kts 328°
2026-05-07 22:25 35.86956 140.29958 3966 ft 266 kts 327°
2026-05-07 22:25 35.88562 140.28792 4781 ft 269 kts 327°
2026-05-07 22:25 35.90182 140.27612 5599 ft 272 kts 326°
2026-05-07 22:26 35.91819 140.26419 6418 ft 275 kts 325°
2026-05-07 22:26 35.93469 140.25216 6896 ft 277 kts 324°
2026-05-07 22:26 35.95137 140.24001 6963 ft 281 kts 325°
2026-05-07 22:26 35.96854 140.22866 6964 ft 281 kts 337°
2026-05-07 22:27 35.98818 140.22640 6979 ft 293 kts
2026-05-07 22:27 36.00697 140.23666 6985 ft 302 kts 37°
2026-05-07 22:27 36.02216 140.25443 6982 ft 302 kts 43°
2026-05-07 22:27 36.03623 140.27371 6960 ft 303 kts 58°
2026-05-07 22:28 36.04266 140.29810 7155 ft 301 kts 89°
2026-05-07 22:28 36.04293 140.32427 7812 ft 309 kts 92°
2026-05-07 22:28 36.04302 140.35114 8636 ft 316 kts 92°
2026-05-07 22:28 36.04319 140.37851 9401 ft 322 kts 92°
2026-05-07 22:29 36.04339 140.40639 10079 ft 327 kts 92°
2026-05-07 22:29 36.04178 140.43444 10501 ft 332 kts 110°
2026-05-07 22:29 36.03154 140.46017 10662 ft 339 kts 129°
2026-05-07 22:29 36.01806 140.48534 10845 ft 364 kts 127°
2026-05-07 22:30 36.00447 140.51244 11040 ft 387 kts 126°
2026-05-07 22:30 35.99011 140.54104 11554 ft 394 kts 130°
2026-05-07 22:30 35.97245 140.56702 12158 ft 396 kts 139°
2026-05-07 22:30 35.95282 140.59099 12967 ft 398 kts 141°
2026-05-07 22:31 35.93307 140.61508 13776 ft 401 kts 140°
2026-05-07 22:31 35.91353 140.64000 14433 ft 406 kts 139°
2026-05-07 22:31 35.89397 140.66548 15053 ft 411 kts 140°
2026-05-07 22:31 35.87250 140.68809 15519 ft 405 kts 154°
2026-05-07 22:32 35.84789 140.70501 16091 ft 406 kts 158°
2026-05-07 22:32 35.82283 140.72152 16762 ft 410 kts 157°
2026-05-07 22:32 35.79780 140.73873 17426 ft 414 kts 156°
2026-05-07 22:32 35.77267 140.75659 18036 ft 419 kts 156°
2026-05-07 22:33 35.74740 140.77480 18558 ft 424 kts 155°
2026-05-07 22:33 35.72187 140.79324 19106 ft 427 kts 155°
2026-05-07 22:33 35.69764 140.81496 19590 ft 440 kts 141°
2026-05-07 22:33 35.67685 140.84313 20087 ft 447 kts 135°
2026-05-07 22:34 35.65666 140.87247 20603 ft 451 kts 135°
2026-05-07 22:34 35.63616 140.90187 21145 ft 454 kts 136°
2026-05-07 22:34 35.61526 140.93113 21661 ft 457 kts 137°
2026-05-07 22:34 35.59399 140.96036 22177 ft 460 kts 137°
2026-05-07 22:35 35.57247 140.98965 22668 ft 463 kts 137°
2026-05-07 22:35 35.55075 141.01911 23111 ft 468 kts 137°
2026-05-07 22:35 35.52879 141.04889 23523 ft 472 kts 137°
2026-05-07 22:35 35.50724 141.07935 23865 ft 476 kts 130°
2026-05-07 22:36 35.49146 141.11576 24112 ft 493 kts 112°
2026-05-07 22:36 35.48523 141.15735 24508 ft 498 kts 96°
2026-05-07 22:36 35.48330 141.19998 24865 ft 502 kts 96°
2026-05-07 22:36 35.48089 141.24228 25236 ft 505 kts 97°
2026-05-07 22:37 35.47799 141.28533 25667 ft 508 kts 98°
2026-05-07 22:37 35.47483 141.32851 26100 ft 509 kts 98°
2026-05-07 22:37 35.47152 141.37183 26545 ft 511 kts 98°
2026-05-07 22:37 35.46817 141.41529 26981 ft 513 kts 98°
2026-05-07 22:38 35.46480 141.45892 27376 ft 516 kts 98°
2026-05-07 22:38 35.46141 141.50283 27761 ft 518 kts 98°
2026-05-07 22:38 35.45801 141.54697 28136 ft 521 kts 98°
2026-05-07 22:38 35.45459 141.59136 28511 ft 524 kts 98°
2026-05-07 22:39 35.45115 141.63588 28865 ft 526 kts 98°
2026-05-07 22:39 35.44767 141.68063 29218 ft 528 kts 98°
2026-05-07 22:39 35.44416 141.72553 29555 ft 531 kts 98°
2026-05-07 22:39 35.44083 141.77076 29843 ft 534 kts 96°
2026-05-07 22:40 35.43938 141.81644 30104 ft 538 kts 93°
2026-05-07 22:40 35.43932 141.86231 30437 ft 538 kts 92°
2026-05-07 22:40 35.43976 141.90822 30722 ft 539 kts 91°
2026-05-07 22:40 35.44015 141.95429 30978 ft 541 kts 92°
2026-05-07 22:41 35.44027 142.00040 31253 ft 541 kts 92°
2026-05-07 22:41 35.44013 142.04649 31576 ft 540 kts 93°
2026-05-07 22:41 35.43979 142.09245 31921 ft 539 kts 93°
2026-05-07 22:41 35.43935 142.13835 32241 ft 538 kts 93°
2026-05-07 22:42 35.43888 142.18416 32536 ft 538 kts 93°
2026-05-07 22:42 35.43840 142.22998 32802 ft 538 kts 93°
2026-05-07 22:42 35.43792 142.27606 32834 ft 541 kts 93°
2026-05-07 22:43 35.43698 142.36809 32870 ft 537 kts 93°
2026-05-07 22:43 35.43599 142.45916 32883 ft 533 kts 94°
2026-05-07 22:44 35.43492 142.55006 32890 ft 533 kts 94°
2026-05-07 22:44 35.43378 142.64093 32891 ft 533 kts 94°
2026-05-07 22:45 35.43259 142.73116 32890 ft 533 kts 94°
2026-05-07 22:45 35.43133 142.82216 32889 ft 534 kts 93°
2026-05-07 22:46 35.43001 142.91315 32901 ft 534 kts 94°
2026-05-07 22:46 35.42861 143.00426 32902 ft 535 kts 94°
2026-05-07 22:47 35.42714 143.09544 32904 ft 535 kts 94°
2026-05-07 22:47 35.42562 143.18668 32908 ft 536 kts 94°
2026-05-07 22:48 35.42888 143.27753 32907 ft 537 kts 76°
2026-05-07 22:48 35.44292 143.31987 32921 ft 539 kts 59°
2026-05-07 22:48 35.46509 143.35683 32926 ft 539 kts 46°
2026-05-07 22:48 35.49320 143.38695 32908 ft 536 kts 31°
2026-05-07 22:49 35.52520 143.40990 32928 ft 533 kts 27°
2026-05-07 22:49 35.59044 143.45415 32952 ft 538 kts 27°
2026-05-07 22:50 35.65564 143.50108 32934 ft 542 kts 28°
2026-05-07 22:50 35.72045 143.54707 32861 ft 533 kts 28°
2026-05-07 22:51 35.78395 143.59291 32897 ft 534 kts 28°
2026-05-07 22:51 35.84853 143.63985 32904 ft 536 kts 28°
2026-05-07 22:52 35.91249 143.68650 32905 ft 539 kts 28°
2026-05-07 22:52 35.97708 143.73368 32917 ft 541 kts 28°
2026-05-07 22:53 36.04192 143.78113 32900 ft 542 kts 28°
2026-05-07 22:53 36.10680 143.82870 32892 ft 542 kts 28°
2026-05-07 22:54 36.17170 143.87639 32893 ft 542 kts 29°
2026-05-07 22:54 36.23652 143.92409 32895 ft 542 kts 29°
2026-05-07 22:55 36.30133 143.97172 32889 ft 541 kts 28°
2026-05-07 22:55 36.36609 144.01931 32884 ft 541 kts 29°
2026-05-07 22:56 36.43078 144.06697 32886 ft 540 kts 29°
2026-05-07 22:56 36.49539 144.11468 32882 ft 540 kts 29°
2026-05-07 22:57 36.56004 144.16253 32881 ft 541 kts 29°
2026-05-07 22:57 36.62472 144.21049 32881 ft 542 kts 29°
2026-05-07 22:58 36.68949 144.25862 32882 ft 542 kts 29°
2026-05-07 22:58 36.75383 144.30653 32883 ft 542 kts 29°
2026-05-07 22:59 36.81865 144.35489 32891 ft 543 kts 29°
2026-05-07 22:59 36.88345 144.40357 32873 ft 544 kts 29°
2026-05-07 23:00 36.94825 144.45243 32894 ft 545 kts 29°
2026-05-07 23:00 37.01342 144.50164 32844 ft 548 kts 30°
2026-05-07 23:01 37.06801 144.54295 32862 ft 547 kts 30°
2026-05-07 23:01 37.13302 144.59217 32867 ft 545 kts 30°
2026-05-07 23:02 37.19738 144.64102 32865 ft 544 kts 30°
2026-05-07 23:02 37.26203 144.69019 32864 ft 543 kts 30°
2026-05-07 23:03 37.32661 144.73942 32878 ft 543 kts 30°
2026-05-07 23:03 37.39129 144.78882 32867 ft 545 kts 30°
2026-05-07 23:04 37.45610 144.83841 32872 ft 546 kts 30°
2026-05-07 23:04 37.52105 144.88821 32869 ft 547 kts 30°
2026-05-07 23:05 37.58611 144.93821 32870 ft 548 kts 30°
2026-05-07 23:05 37.65121 144.98834 32869 ft 549 kts 30°
2026-05-07 23:06 37.71641 145.03872 32869 ft 549 kts 30°
2026-05-07 23:06 37.78165 145.08912 32864 ft 550 kts 30°
2026-05-07 23:07 37.84691 145.13967 32885 ft 550 kts 30°
2026-05-07 23:07 37.91183 145.19008 32871 ft 551 kts 30°
2026-05-07 23:08 37.97722 145.24097 32869 ft 552 kts 30°
2026-05-07 23:08 38.04266 145.29200 32865 ft 552 kts 30°
2026-05-07 23:09 38.10812 145.34317 32894 ft 553 kts 30°
2026-05-07 23:09 38.17366 145.39451 32871 ft 554 kts 30°
2026-05-07 23:10 38.23925 145.44599 32866 ft 554 kts 30°
2026-05-07 23:10 38.30483 145.49763 32867 ft 555 kts 31°
2026-05-07 23:11 38.36643 145.55690 32855 ft 556 kts 42°
2026-05-07 23:11 38.42290 145.62429 32866 ft 557 kts 43°
2026-05-07 23:12 38.47928 145.69211 32867 ft 557 kts 43°
2026-05-07 23:12 38.53599 145.75961 32869 ft 558 kts 42°
2026-05-07 23:13 38.59294 145.82704 32862 ft 558 kts 42°
2026-05-07 23:13 38.64987 145.89454 32862 ft 558 kts 42°
2026-05-07 23:14 38.70678 145.96224 32880 ft 559 kts 42°
2026-05-07 23:14 38.76369 146.03014 32858 ft 559 kts 42°
2026-05-07 23:15 38.82021 146.09771 32857 ft 560 kts 42°
2026-05-07 23:15 38.87713 146.16594 32859 ft 560 kts 42°
2026-05-07 23:16 38.93407 146.23434 32856 ft 561 kts 42°
2026-05-07 23:16 38.99099 146.30287 32859 ft 561 kts 42°
2026-05-07 23:17 39.04790 146.37155 32866 ft 561 kts 42°
2026-05-07 23:17 39.10484 146.44043 32855 ft 562 kts 42°
2026-05-07 23:18 39.16178 146.50946 32846 ft 562 kts 42°
2026-05-07 23:18 39.21868 146.57861 32848 ft 562 kts 42°
2026-05-07 23:19 39.27551 146.64784 32846 ft 562 kts 42°
2026-05-07 23:19 39.33231 146.71719 32874 ft 562 kts 42°
2026-05-07 23:20 39.38906 146.78666 32841 ft 562 kts 42°
2026-05-07 23:20 39.44570 146.85613 32834 ft 561 kts 42°
2026-05-07 23:21 39.50194 146.92528 32845 ft 561 kts 42°
2026-05-07 23:21 39.55849 146.99497 32833 ft 561 kts 42°
2026-05-07 23:22 39.61502 147.06481 32837 ft 561 kts 42°
2026-05-07 23:22 39.67151 147.13477 32843 ft 562 kts 42°
2026-05-07 23:23 39.72801 147.20490 32829 ft 562 kts 42°
2026-05-07 23:23 39.78447 147.27515 32827 ft 562 kts 42°
2026-05-07 23:24 39.84090 147.34555 32829 ft 562 kts 43°
2026-05-07 23:24 39.89730 147.41606 32817 ft 562 kts 42°
2026-05-07 23:25 39.95367 147.48670 32848 ft 562 kts 42°
2026-05-07 23:25 40.00999 147.55747 32826 ft 562 kts 42°
2026-05-07 23:26 40.06630 147.62837 32818 ft 562 kts 43°
2026-05-07 23:26 40.12248 147.69929 32810 ft 562 kts 43°
2026-05-07 23:27 40.20664 147.80586 32819 ft 561 kts 43°
2026-05-07 23:27 40.26268 147.87704 32829 ft 561 kts 43°
2026-05-07 23:28 40.31833 147.94789 32818 ft 562 kts 43°
2026-05-07 23:28 40.37435 148.01938 32814 ft 562 kts 43°
2026-05-07 23:29 40.43033 148.09100 32814 ft 562 kts 43°
2026-05-07 23:29 40.48628 148.16275 32813 ft 562 kts 43°
2026-05-07 23:30 40.54217 148.23462 32814 ft 562 kts 43°
2026-05-07 23:30 40.59807 148.30667 32810 ft 563 kts 43°
2026-05-07 23:31 40.65391 148.37882 32818 ft 563 kts 43°
2026-05-07 23:31 40.70976 148.45116 32817 ft 563 kts 43°
2026-05-07 23:32 40.76561 148.52369 32818 ft 564 kts 43°
2026-05-07 23:32 40.82147 148.59640 32814 ft 564 kts 43°
2026-05-07 23:33 40.87732 148.66929 32818 ft 565 kts 43°
2026-05-07 23:33 40.93319 148.74239 32823 ft 565 kts 43°
2026-05-07 23:34 40.98906 148.81568 32818 ft 566 kts 43°
2026-05-07 23:34 41.04487 148.88908 32819 ft 566 kts 43°
2026-05-07 23:35 41.10065 148.96261 32822 ft 565 kts 43°
2026-05-07 23:35 41.15634 149.03627 32821 ft 565 kts 43°
2026-05-07 23:36 41.21194 149.11005 32848 ft 565 kts 43°
2026-05-07 23:36 41.26755 149.18405 32821 ft 566 kts 43°
2026-05-07 23:37 41.32313 149.25818 32823 ft 566 kts 43°
2026-05-07 23:37 41.37865 149.33242 32825 ft 566 kts 43°
2026-05-07 23:38 41.43379 149.40633 32825 ft 566 kts 43°
2026-05-07 23:38 41.48962 149.48137 32826 ft 566 kts 43°
2026-05-07 23:39 41.54502 149.55602 32842 ft 566 kts 43°
2026-05-07 23:39 41.60005 149.63037 32829 ft 567 kts 43°
2026-05-07 23:40 41.65538 149.70532 32826 ft 566 kts 43°
2026-05-07 23:40 41.71068 149.78042 32826 ft 566 kts 43°
2026-05-07 23:41 41.76595 149.85566 32828 ft 566 kts 43°
2026-05-07 23:41 41.82113 149.93099 32830 ft 566 kts 43°
2026-05-07 23:42 41.87629 150.00650 32837 ft 567 kts 43°
2026-05-07 23:42 41.93143 150.08216 32832 ft 567 kts 43°
2026-05-07 23:43 41.98650 150.15794 32833 ft 567 kts 43°
2026-05-07 23:43 42.04150 150.23381 32833 ft 567 kts 43°
2026-05-07 23:44 42.09647 150.30985 32839 ft 566 kts 43°
2026-05-07 23:44 42.15101 150.38548 32819 ft 567 kts 43°
2026-05-07 23:45 42.20618 150.46220 32841 ft 567 kts 43°
2026-05-07 23:45 42.26075 150.53828 32844 ft 567 kts 43°
2026-05-07 23:46 42.31561 150.61498 32839 ft 568 kts 43°
2026-05-07 23:46 42.37046 150.69186 32841 ft 568 kts 43°
2026-05-07 23:47 42.42529 150.76891 32839 ft 568 kts 43°
2026-05-07 23:47 42.48008 150.84613 32851 ft 569 kts 43°
2026-05-07 23:48 42.53489 150.92357 32852 ft 570 kts 43°
2026-05-07 23:48 42.58968 151.00121 32850 ft 570 kts 43°
2026-05-07 23:49 42.64446 151.07903 32848 ft 570 kts 43°
2026-05-07 23:49 42.69917 151.15699 32850 ft 570 kts 43°
2026-05-07 23:50 42.75380 151.23503 32851 ft 569 kts 43°
2026-05-07 23:50 42.79915 151.29999 32856 ft 570 kts 43°
2026-05-07 23:51 42.85370 151.37829 32870 ft 570 kts 43°
2026-05-07 23:51 42.90823 151.45678 32859 ft 570 kts 43°
2026-05-07 23:52 42.96268 151.53541 32854 ft 570 kts 43°
2026-05-07 23:52 43.01707 151.61414 32860 ft 570 kts 43°
2026-05-07 23:53 43.07140 151.69300 32858 ft 570 kts 43°
2026-05-07 23:53 43.12568 151.77202 32861 ft 570 kts 43°
2026-05-07 23:54 43.18005 151.85137 32883 ft 570 kts 43°
2026-05-07 23:54 43.23425 151.93071 32867 ft 570 kts 43°
2026-05-07 23:55 43.28845 152.01027 32871 ft 570 kts 43°
2026-05-07 23:55 43.34258 152.08995 32870 ft 570 kts 43°
2026-05-07 23:56 43.39660 152.16970 32869 ft 570 kts 43°
2026-05-07 23:56 43.45020 152.24903 32869 ft 570 kts 43°
2026-05-07 23:57 43.50447 152.32960 32910 ft 570 kts 43°
2026-05-07 23:57 43.55801 152.40928 32880 ft 572 kts 43°
2026-05-07 23:58 43.61198 152.48986 32880 ft 572 kts 43°
2026-05-07 23:58 43.66608 152.57085 32883 ft 573 kts 43°
2026-05-07 23:59 43.72011 152.65197 32883 ft 574 kts 43°
2026-05-07 23:59 43.77407 152.73322 32885 ft 574 kts 43°
2026-05-08 00:00 43.82807 152.81475 32885 ft 574 kts 43°
2026-05-08 00:00 43.88201 152.89644 32893 ft 575 kts 43°
2026-05-08 00:01 43.93588 152.97828 32900 ft 575 kts 43°
2026-05-08 00:01 43.98975 153.06033 32900 ft 575 kts 43°
2026-05-08 00:02 44.04358 153.14255 32889 ft 575 kts 43°
2026-05-08 00:02 44.09723 153.22478 32896 ft 573 kts 43°
2026-05-08 00:03 44.15073 153.30699 32901 ft 572 kts 43°
2026-05-08 00:03 44.20415 153.38930 32907 ft 573 kts 43°
2026-05-08 00:04 44.25762 153.47190 32904 ft 574 kts 43°
2026-05-08 00:04 44.31105 153.55473 32906 ft 574 kts 43°
2026-05-08 00:05 44.36443 153.63773 32910 ft 575 kts 43°
2026-05-08 00:05 44.41780 153.72096 32915 ft 575 kts 43°
2026-05-08 00:06 44.47118 153.80443 32902 ft 575 kts 43°
2026-05-08 00:06 44.52448 153.88804 32930 ft 576 kts 43°
2026-05-08 00:07 44.57777 153.97187 32920 ft 576 kts 43°
2026-05-08 00:07 44.63101 154.05589 32913 ft 577 kts 43°
2026-05-08 00:08 44.68423 154.14014 32913 ft 576 kts 43°
2026-05-08 00:09 44.79307 154.31321 32910 ft 577 kts 43°
2026-05-08 00:09 44.84610 154.39791 32917 ft 576 kts 43°
2026-05-08 00:10 44.89888 154.48325 32928 ft 578 kts 44°
2026-05-08 00:10 44.95120 154.56960 32919 ft 579 kts 44°
2026-05-08 00:11 45.00343 154.65626 32916 ft 579 kts 44°
2026-05-08 00:11 45.05571 154.74301 32922 ft 579 kts 44°
2026-05-08 00:12 45.10799 154.82985 32919 ft 580 kts 44°
2026-05-08 00:12 45.16019 154.91680 32921 ft 580 kts 44°
2026-05-08 00:13 45.21234 155.00396 32942 ft 580 kts 44°
2026-05-08 00:13 45.26451 155.09143 32919 ft 581 kts 44°
2026-05-08 00:14 45.31666 155.17914 32918 ft 581 kts 44°
2026-05-08 00:14 45.36840 155.26645 32937 ft 581 kts 44°
2026-05-08 00:15 45.42046 155.35457 32924 ft 582 kts 44°
2026-05-08 00:15 45.47246 155.44287 32919 ft 582 kts 44°
2026-05-08 00:16 45.52458 155.53163 33367 ft 583 kts 44°
2026-05-08 00:16 45.55054 155.57598 33831 ft 581 kts 44°
2026-05-08 00:16 45.57638 155.62022 34161 ft 580 kts 44°
2026-05-08 00:17 45.60217 155.66440 34479 ft 579 kts 44°
2026-05-08 00:17 45.62792 155.70858 34802 ft 578 kts 44°
2026-05-08 00:17 45.67947 155.79716 34914 ft 581 kts 44°
2026-05-08 00:18 45.73090 155.88589 34919 ft 578 kts 43°
2026-05-08 00:18 45.78201 155.97437 34917 ft 575 kts 43°
2026-05-08 00:19 45.83291 156.06274 34921 ft 574 kts 44°
2026-05-08 00:19 45.88368 156.15112 34922 ft 574 kts 44°
2026-05-08 00:20 45.93444 156.23978 34917 ft 575 kts 44°
2026-05-08 00:20 45.98526 156.32882 34927 ft 577 kts 44°
2026-05-08 00:21 46.03611 156.41823 34942 ft 578 kts 43°
2026-05-08 00:21 46.08704 156.50806 34930 ft 580 kts 44°
2026-05-08 00:22 46.13800 156.59826 34920 ft 581 kts 44°
2026-05-08 00:22 46.18036 156.67345 34929 ft 581 kts 44°
2026-05-08 00:23 46.23126 156.76408 34927 ft 581 kts 44°
2026-05-08 00:23 46.28210 156.85488 34920 ft 581 kts 44°
2026-05-08 00:24 46.33291 156.94592 34915 ft 581 kts 44°
2026-05-08 00:24 46.38356 157.03699 34919 ft 581 kts 43°
2026-05-08 00:25 46.43411 157.12818 34914 ft 580 kts 44°
2026-05-08 00:25 46.48452 157.21941 34910 ft 579 kts 44°
2026-05-08 00:26 46.53481 157.31071 34920 ft 578 kts 43°
2026-05-08 00:26 46.58498 157.40209 34902 ft 578 kts 44°
2026-05-08 00:27 46.63504 157.49359 34914 ft 579 kts 43°
2026-05-08 00:27 46.68507 157.58532 34921 ft 578 kts 43°
2026-05-08 00:28 46.73499 157.67716 34907 ft 578 kts 43°
2026-05-08 00:28 46.78479 157.76909 34909 ft 577 kts 43°
2026-05-08 00:29 46.83449 157.86114 34906 ft 577 kts 44°
2026-05-08 00:29 46.88409 157.95331 34909 ft 577 kts 43°
2026-05-08 00:30 46.93364 158.04568 34909 ft 577 kts 44°
2026-05-08 00:30 46.98279 158.13762 34920 ft 578 kts 44°
2026-05-08 00:31 47.03226 158.23046 34915 ft 578 kts 43°
2026-05-08 00:31 47.08168 158.32355 34906 ft 578 kts 44°
2026-05-08 00:32 47.13101 158.41678 34900 ft 578 kts 44°
2026-05-08 00:32 47.18027 158.51019 34909 ft 578 kts 44°
2026-05-08 00:33 47.22944 158.60374 34908 ft 578 kts 44°
2026-05-08 00:33 47.27853 158.69745 34890 ft 578 kts 44°
2026-05-08 00:34 47.32751 158.79129 34906 ft 578 kts 44°
2026-05-08 00:34 47.37643 158.88532 34893 ft 578 kts 44°
2026-05-08 00:35 47.42522 158.97942 34895 ft 577 kts 44°
2026-05-08 00:35 47.47394 159.07371 34890 ft 577 kts 44°
2026-05-08 00:36 47.52258 159.16818 34892 ft 577 kts 44°
2026-05-08 00:36 47.57112 159.26277 34887 ft 577 kts 44°
2026-05-08 00:37 47.61959 159.35755 34888 ft 577 kts 44°
2026-05-08 00:38 47.69226 159.50026 34897 ft 579 kts 44°
2026-05-08 00:38 47.74071 159.59583 34884 ft 579 kts 44°
2026-05-08 00:39 47.78908 159.69161 34884 ft 579 kts 44°
2026-05-08 00:39 47.83740 159.78761 34893 ft 579 kts 44°
2026-05-08 00:40 47.88561 159.88372 34877 ft 579 kts 44°
2026-05-08 00:40 47.93376 159.98006 34873 ft 579 kts 44°
2026-05-08 00:41 47.98145 160.07581 34873 ft 579 kts 44°
2026-05-08 00:41 48.02940 160.17242 34903 ft 580 kts 44°
2026-05-08 00:42 48.07738 160.26939 34872 ft 580 kts 45°
2026-05-08 00:42 48.12524 160.36653 34873 ft 580 kts 45°
2026-05-08 00:43 48.17305 160.46391 34880 ft 580 kts 45°
2026-05-08 00:43 48.22075 160.56141 34864 ft 580 kts 45°
2026-05-08 00:44 48.26839 160.65912 34868 ft 580 kts 45°
2026-05-08 00:44 48.31541 160.75775 34864 ft 582 kts 46°
2026-05-08 00:45 48.36131 160.85798 34921 ft 583 kts 47°
2026-05-08 00:45 48.40714 160.95879 34869 ft 584 kts 47°
2026-05-08 00:46 48.45310 161.05956 34861 ft 584 kts 47°
2026-05-08 00:46 48.49913 161.16048 34871 ft 584 kts 46°
2026-05-08 00:47 48.54508 161.26156 34863 ft 584 kts 47°
2026-05-08 00:47 48.59093 161.36285 34858 ft 584 kts 47°
2026-05-08 00:48 48.63670 161.46440 34877 ft 584 kts 47°
2026-05-08 00:48 48.68237 161.56609 34852 ft 584 kts 47°
2026-05-08 00:49 48.72791 161.66791 34897 ft 584 kts 47°
2026-05-08 00:49 48.77350 161.77016 34858 ft 586 kts 47°
2026-05-08 00:50 48.81900 161.87263 34864 ft 586 kts 47°
2026-05-08 00:50 48.86411 161.97463 34856 ft 586 kts 47°
2026-05-08 00:51 48.90948 162.07759 34856 ft 586 kts 47°
2026-05-08 00:51 48.95473 162.18069 34891 ft 586 kts 47°
2026-05-08 00:52 48.99995 162.28404 34852 ft 587 kts 47°
2026-05-08 00:52 49.04506 162.38764 34849 ft 587 kts 47°
2026-05-08 00:53 49.09006 162.49138 34880 ft 587 kts 47°
2026-05-08 00:53 49.13510 162.59556 34859 ft 588 kts 47°
2026-05-08 00:54 49.18009 162.70004 34855 ft 589 kts 48°
2026-05-08 00:54 49.22501 162.80480 34855 ft 589 kts 48°
2026-05-08 00:55 49.26985 162.90979 34884 ft 590 kts 48°
2026-05-08 00:55 49.31469 163.01516 34858 ft 591 kts 48°
2026-05-08 00:56 49.35946 163.12079 34855 ft 591 kts 48°
2026-05-08 00:56 49.40413 163.22663 34855 ft 591 kts 48°
2026-05-08 00:57 49.44873 163.33272 34897 ft 592 kts 48°
2026-05-08 00:57 49.49334 163.43921 34858 ft 592 kts 48°
2026-05-08 00:58 49.53782 163.54588 34855 ft 592 kts 48°
2026-05-08 00:58 49.58219 163.65272 34883 ft 592 kts 48°
2026-05-08 00:59 49.62644 163.75967 34853 ft 591 kts 48°
2026-05-08 00:59 49.67053 163.86669 34853 ft 591 kts 48°
2026-05-08 01:00 49.71449 163.97379 34859 ft 590 kts 48°
2026-05-08 01:00 49.75831 164.08094 34868 ft 589 kts 48°
2026-05-08 01:01 49.80199 164.18824 34926 ft 589 kts 49°
2026-05-08 01:01 49.84553 164.29565 34853 ft 589 kts 49°
2026-05-08 01:02 49.88889 164.40314 34869 ft 587 kts 49°
2026-05-08 01:02 49.93172 164.50970 34851 ft 585 kts 49°
2026-05-08 01:03 49.97467 164.61688 34852 ft 584 kts 49°
2026-05-08 01:03 50.01740 164.72400 34861 ft 583 kts 50°
2026-05-08 01:04 50.05999 164.83121 34875 ft 582 kts 50°
2026-05-08 01:04 50.10249 164.93864 34857 ft 583 kts 50°
2026-05-08 01:05 50.14487 165.04620 34923 ft 582 kts 51°
2026-05-08 01:05 50.18714 165.15401 34864 ft 582 kts 51°
2026-05-08 01:06 50.22882 165.26223 34865 ft 581 kts 52°
2026-05-08 01:06 50.27009 165.37039 34864 ft 579 kts 52°
2026-05-08 01:07 50.31065 165.47693 34855 ft 577 kts 52°
2026-05-08 01:07 50.35163 165.58480 34869 ft 576 kts 52°
2026-05-08 01:08 50.39246 165.69271 34865 ft 575 kts 52°
2026-05-08 01:08 50.43316 165.80068 34861 ft 575 kts 52°
2026-05-08 01:09 50.47377 165.90890 34862 ft 575 kts 52°
2026-05-08 01:09 50.51427 166.01729 34908 ft 575 kts 53°
2026-05-08 01:10 50.55462 166.12581 34869 ft 574 kts 53°
2026-05-08 01:10 50.59474 166.23416 34859 ft 572 kts 53°
2026-05-08 01:11 50.63465 166.34236 34860 ft 571 kts 53°
2026-05-08 01:11 50.67438 166.45051 34870 ft 570 kts 54°
2026-05-08 01:12 50.71398 166.55873 34863 ft 569 kts 54°
2026-05-08 01:12 50.74680 166.64880 34867 ft 570 kts 54°
2026-05-08 01:13 50.78622 166.75738 34858 ft 570 kts 54°
2026-05-08 01:13 50.82561 166.86633 34874 ft 571 kts 54°
2026-05-08 01:14 50.86484 166.97538 34864 ft 570 kts 54°
2026-05-08 01:14 50.90396 167.08456 34864 ft 570 kts 54°
2026-05-08 01:15 50.94295 167.19383 34867 ft 569 kts 55°
2026-05-08 01:15 50.98178 167.30313 34864 ft 568 kts 55°
2026-05-08 01:16 51.02044 167.41240 34859 ft 567 kts 55°
2026-05-08 01:16 51.05895 167.52174 34856 ft 566 kts 55°
2026-05-08 01:17 51.09729 167.63105 34866 ft 566 kts 55°
2026-05-08 01:17 51.13550 167.74046 34859 ft 565 kts 56°
2026-05-08 01:18 51.17356 167.84992 34861 ft 565 kts 56°
2026-05-08 01:18 51.21150 167.95941 34853 ft 564 kts 56°
2026-05-08 01:19 51.24898 168.06821 34862 ft 562 kts 57°
2026-05-08 01:19 51.28648 168.17753 34859 ft 560 kts 57°
2026-05-08 01:20 51.32375 168.28662 34859 ft 559 kts 57°
2026-05-08 01:20 51.36087 168.39567 34852 ft 558 kts 57°
2026-05-08 01:21 51.39781 168.50470 34859 ft 557 kts 57°
2026-05-08 01:21 51.43460 168.61377 34855 ft 556 kts 57°
2026-05-08 01:22 51.47130 168.72303 34856 ft 557 kts 57°
2026-05-08 01:22 51.50790 168.83249 34859 ft 557 kts 57°
2026-05-08 01:23 51.54446 168.94220 34867 ft 558 kts 58°
2026-05-08 01:23 51.58085 169.05210 34864 ft 557 kts 58°
2026-05-08 01:24 51.61712 169.16207 34860 ft 556 kts 58°
2026-05-08 01:24 51.65321 169.27194 34861 ft 555 kts 58°
2026-05-08 01:25 51.68917 169.38187 34870 ft 554 kts 59°
2026-05-08 01:25 51.72494 169.49173 34860 ft 553 kts 59°
2026-05-08 01:26 51.76056 169.60162 34862 ft 552 kts 59°
2026-05-08 01:26 51.79602 169.71150 34863 ft 552 kts 59°
2026-05-08 01:27 51.83134 169.82145 34866 ft 551 kts 59°
2026-05-08 01:27 51.86656 169.93154 34877 ft 551 kts 60°
2026-05-08 01:28 51.90162 170.04168 34864 ft 550 kts 60°
2026-05-08 01:28 51.93630 170.15108 34864 ft 549 kts 60°
2026-05-08 01:29 51.97107 170.26126 34877 ft 548 kts 60°
2026-05-08 01:29 52.00566 170.37138 34865 ft 547 kts 60°
2026-05-08 01:30 52.04008 170.48146 34866 ft 547 kts 60°
2026-05-08 01:30 52.07438 170.59164 34870 ft 546 kts 60°
2026-05-08 01:31 52.10911 170.70134 34863 ft 544 kts 57°
2026-05-08 01:31 52.15178 170.80216 34865 ft 538 kts 46°
2026-05-08 01:32 52.20096 170.89394 34874 ft 538 kts 45°
2026-05-08 01:32 52.25031 170.98569 34876 ft 538 kts 45°
2026-05-08 01:33 52.29933 171.07823 34870 ft 538 kts 46°
2026-05-08 01:33 52.34799 171.17113 34873 ft 538 kts 46°
2026-05-08 01:34 52.39649 171.26416 34872 ft 537 kts 46°
2026-05-08 01:34 52.44490 171.35728 34874 ft 536 kts 46°
2026-05-08 01:35 52.49316 171.45038 34879 ft 536 kts 47°
2026-05-08 01:35 52.54128 171.54359 34870 ft 534 kts 47°
2026-05-08 01:36 52.58922 171.63679 34871 ft 533 kts 47°
2026-05-08 01:36 52.63697 171.72997 34882 ft 532 kts 47°
2026-05-08 01:37 52.68458 171.82320 34880 ft 531 kts 47°
2026-05-08 01:37 52.73207 171.91657 34881 ft 531 kts 47°
2026-05-08 01:38 52.77946 172.01003 34879 ft 531 kts 48°
2026-05-08 01:38 52.82670 172.10363 34877 ft 530 kts 48°
2026-05-08 01:39 52.87380 172.19726 34882 ft 529 kts 49°
2026-05-08 01:39 52.92078 172.29101 34882 ft 529 kts 49°
2026-05-08 01:40 52.96768 172.38493 34884 ft 529 kts 49°
2026-05-08 01:40 53.01450 172.47903 34884 ft 528 kts 49°
2026-05-08 01:41 53.06085 172.57254 34885 ft 528 kts 49°
2026-05-08 01:41 53.10737 172.66683 34883 ft 527 kts 50°
2026-05-08 01:42 53.15378 172.76119 34882 ft 526 kts 50°
2026-05-08 01:42 53.20007 172.85565 34878 ft 525 kts 50°
2026-05-08 01:43 53.24618 172.95011 34882 ft 524 kts 50°
2026-05-08 01:43 53.29215 173.04464 34884 ft 524 kts 50°
2026-05-08 01:44 53.33799 173.13924 34889 ft 523 kts 51°
2026-05-08 01:44 53.38369 173.23395 34883 ft 523 kts 51°
2026-05-08 01:45 53.42927 173.32874 34878 ft 522 kts 51°
2026-05-08 01:45 53.47467 173.42355 34884 ft 521 kts 51°
2026-05-08 01:46 53.51994 173.51838 34886 ft 520 kts 51°
2026-05-08 01:46 53.56177 173.61741 34897 ft 519 kts 57°
2026-05-08 01:47 53.60017 173.71937 34893 ft 519 kts 58°
2026-05-08 01:47 53.63862 173.82226 34880 ft 519 kts 58°
2026-05-08 01:48 53.69652 173.97620 34885 ft 518 kts 58°
2026-05-08 01:48 53.73508 174.07875 34884 ft 517 kts 58°
2026-05-08 01:49 53.77353 174.18145 34896 ft 517 kts 58°
2026-05-08 01:49 53.81186 174.28430 34883 ft 516 kts 59°
2026-05-08 01:50 53.85004 174.38719 34882 ft 515 kts 59°
2026-05-08 01:50 53.88803 174.49003 34887 ft 515 kts 59°
2026-05-08 01:51 53.92589 174.59292 34887 ft 514 kts 59°
2026-05-08 01:51 53.96363 174.69592 34887 ft 514 kts 59°
2026-05-08 01:52 54.00026 174.79628 34882 ft 513 kts 60°
2026-05-08 01:52 54.03774 174.89937 34889 ft 512 kts 60°
2026-05-08 01:53 54.07506 175.00251 34882 ft 512 kts 60°
2026-05-08 01:53 54.11229 175.10578 34885 ft 511 kts 60°
2026-05-08 01:54 54.14941 175.20919 34890 ft 511 kts 60°
2026-05-08 01:54 54.18642 175.31269 34893 ft 511 kts 60°
2026-05-08 01:55 54.22329 175.41630 34887 ft 510 kts 60°
2026-05-08 01:55 54.26004 175.51999 34890 ft 509 kts 61°
2026-05-08 01:56 54.29666 175.62375 34893 ft 509 kts 61°
2026-05-08 01:56 54.33318 175.72765 34891 ft 509 kts 61°
2026-05-08 01:57 54.36958 175.83161 34888 ft 508 kts 61°
2026-05-08 01:57 54.40580 175.93553 34891 ft 507 kts 62°
2026-05-08 01:58 54.44187 176.03946 34896 ft 506 kts 62°
2026-05-08 01:58 54.47777 176.14330 34892 ft 505 kts 62°
2026-05-08 01:59 54.51347 176.24709 34883 ft 504 kts 62°
2026-05-08 01:59 54.54899 176.35071 34888 ft 502 kts 63°
2026-05-08 02:00 54.58428 176.45416 34894 ft 500 kts 63°
2026-05-08 02:00 54.61920 176.55693 34899 ft 499 kts 63°
2026-05-08 02:01 54.65422 176.66044 34896 ft 499 kts 63°
2026-05-08 02:01 54.68915 176.76410 34872 ft 499 kts 63°
2026-05-08 02:02 54.72398 176.86789 34891 ft 498 kts 65°
2026-05-08 02:02 54.75856 176.97138 34894 ft 496 kts 65°
2026-05-08 02:03 54.79298 177.07488 34895 ft 495 kts 65°
2026-05-08 02:03 54.82723 177.17826 34893 ft 494 kts 65°
2026-05-08 02:04 54.86133 177.28167 34898 ft 493 kts 65°
2026-05-08 02:04 54.89524 177.38486 34892 ft 491 kts 66°
2026-05-08 02:05 54.92892 177.48787 34895 ft 490 kts 66°
2026-05-08 02:05 54.96246 177.59088 34896 ft 489 kts 66°
2026-05-08 02:06 54.99587 177.69391 34889 ft 488 kts 67°
2026-05-08 02:06 55.02910 177.79684 34893 ft 487 kts 67°
2026-05-08 02:07 55.05661 177.88231 34892 ft 485 kts 67°
2026-05-08 02:07 55.08950 177.98502 34900 ft 484 kts 68°
2026-05-08 02:08 55.12225 178.08774 34912 ft 484 kts 68°
2026-05-08 02:08 55.15497 178.19080 34903 ft 485 kts 68°
2026-05-08 02:09 55.18767 178.29422 34909 ft 486 kts 68°
2026-05-08 02:09 55.22036 178.39802 34888 ft 487 kts 68°
2026-05-08 02:10 55.25298 178.50204 34901 ft 487 kts 68°
2026-05-08 02:10 55.28549 178.60621 34897 ft 486 kts 68°
2026-05-08 02:11 55.31787 178.71034 34915 ft 486 kts 68°
2026-05-08 02:11 55.35023 178.81461 34913 ft 486 kts 68°
2026-05-08 02:12 55.38259 178.91896 34907 ft 486 kts 67°
2026-05-08 02:12 55.41483 179.02339 34914 ft 485 kts 67°
2026-05-08 02:13 55.44694 179.12788 34921 ft 485 kts 67°
2026-05-08 02:13 55.47895 179.23258 34926 ft 485 kts 67°
2026-05-08 02:14 55.51089 179.33750 34929 ft 485 kts 67°
2026-05-08 02:14 55.54273 179.44260 34925 ft 486 kts 67°
2026-05-08 02:15 55.57432 179.54733 34916 ft 486 kts 66°
2026-05-08 02:15 55.60605 179.65289 34936 ft 486 kts 66°
2026-05-08 02:16 55.63768 179.75865 34937 ft 486 kts 66°
2026-05-08 02:16 55.66922 179.86462 34949 ft 487 kts 67°
2026-05-08 02:17 55.70072 179.97091 34946 ft 487 kts 67°
2026-05-08 02:17 55.73213 -179.92263 34939 ft 487 kts 66°
2026-05-08 02:18 55.76340 -179.81615 34948 ft 486 kts 66°
2026-05-08 02:18 55.79459 -179.70948 34936 ft 486 kts 66°
2026-05-08 02:19 55.82567 -179.60266 34953 ft 487 kts 66°
2026-05-08 02:19 55.85669 -179.49557 34958 ft 487 kts 66°
2026-05-08 02:20 55.88762 -179.38832 34966 ft 487 kts 66°
2026-05-08 02:20 55.91846 -179.28088 34963 ft 487 kts 66°
2026-05-08 02:21 55.94922 -179.17324 34967 ft 487 kts 66°
2026-05-08 02:21 55.97992 -179.06527 34968 ft 487 kts 67°
2026-05-08 02:22 56.01050 -178.95726 34971 ft 487 kts 67°
2026-05-08 02:22 56.04097 -178.84908 34952 ft 487 kts 66°
2026-05-08 02:23 56.07134 -178.74077 34973 ft 487 kts 66°
2026-05-08 02:23 56.10162 -178.63229 34990 ft 487 kts 66°
2026-05-08 02:24 56.13183 -178.52352 34985 ft 488 kts 66°
2026-05-08 02:24 56.16196 -178.41454 34982 ft 488 kts 66°
2026-05-08 02:25 56.19201 -178.30533 34993 ft 488 kts 66°
2026-05-08 02:25 56.22196 -178.19597 34989 ft 488 kts 66°
2026-05-08 02:26 56.25162 -178.08714 34999 ft 488 kts 66°
2026-05-08 02:26 56.28136 -177.97751 34996 ft 488 kts 66°
2026-05-08 02:27 56.31100 -177.86770 34993 ft 487 kts 66°
2026-05-08 02:27 56.34052 -177.75781 35003 ft 487 kts 66°
2026-05-08 02:28 56.36992 -177.64784 35006 ft 486 kts 66°
2026-05-08 02:28 56.39917 -177.53790 35001 ft 486 kts 66°
2026-05-08 02:29 56.42828 -177.42797 35005 ft 485 kts 65°
2026-05-08 02:29 56.45724 -177.31803 35006 ft 484 kts 66°
2026-05-08 02:30 56.48606 -177.20806 35021 ft 484 kts 66°
2026-05-08 02:30 56.51480 -177.09797 35010 ft 484 kts 66°
2026-05-08 02:31 56.54342 -176.98773 35007 ft 483 kts 65°
2026-05-08 02:31 56.57189 -176.87752 35016 ft 482 kts 66°
2026-05-08 02:32 56.60021 -176.76734 35033 ft 481 kts 65°
2026-05-08 02:32 56.62840 -176.65713 35033 ft 481 kts 66°
2026-05-08 02:33 56.65651 -176.54667 35018 ft 482 kts 66°
2026-05-08 02:33 56.68441 -176.43661 35034 ft 482 kts 65°
2026-05-08 02:34 56.71254 -176.32492 35027 ft 482 kts 65°
2026-05-08 02:34 56.74018 -176.21465 35033 ft 481 kts 65°
2026-05-08 02:35 56.76789 -176.10361 35038 ft 481 kts 65°
2026-05-08 02:35 56.79550 -175.99238 35029 ft 482 kts 66°
2026-05-08 02:36 56.82302 -175.88103 35045 ft 481 kts 66°
2026-05-08 02:36 56.85024 -175.76990 35031 ft 478 kts 66°
2026-05-08 02:37 56.87721 -175.65896 35050 ft 478 kts 66°
2026-05-08 02:37 56.90413 -175.54765 35048 ft 479 kts 66°
2026-05-08 02:38 56.93103 -175.43602 35056 ft 479 kts 66°
2026-05-08 02:38 56.95783 -175.32423 35055 ft 479 kts 66°
2026-05-08 02:39 56.98447 -175.21245 35053 ft 477 kts 67°
2026-05-08 02:39 57.01090 -175.10101 35057 ft 476 kts 67°
2026-05-08 02:40 57.03723 -174.98941 35054 ft 477 kts 67°
2026-05-08 02:40 57.06360 -174.87709 35067 ft 480 kts 67°
2026-05-08 02:41 57.08997 -174.76416 35065 ft 481 kts 68°
2026-05-08 02:41 57.11604 -174.65195 35056 ft 479 kts 67°
2026-05-08 02:42 57.14227 -174.53842 35064 ft 478 kts 67°
2026-05-08 02:42 57.16804 -174.42630 35073 ft 479 kts 67°
2026-05-08 02:43 57.19390 -174.31315 35073 ft 479 kts 67°
2026-05-08 02:43 57.21968 -174.19978 35068 ft 479 kts 68°
2026-05-08 02:44 57.24531 -174.08644 35073 ft 478 kts 67°
2026-05-08 02:44 57.27085 -173.97292 35069 ft 479 kts 67°
2026-05-08 02:45 57.29631 -173.85913 35074 ft 479 kts 67°
2026-05-08 02:45 57.32173 -173.74495 35075 ft 480 kts 67°
2026-05-08 02:46 57.34720 -173.63062 35086 ft 480 kts 67°
2026-05-08 02:46 57.37313 -173.51657 35084 ft 480 kts 67°
2026-05-08 02:47 57.39904 -173.40248 35083 ft 480 kts 66°
2026-05-08 02:47 57.42478 -173.28824 35085 ft 480 kts 67°
2026-05-08 02:48 57.45036 -173.17380 35088 ft 480 kts 67°
2026-05-08 02:48 57.47583 -173.05919 35085 ft 480 kts 66°
2026-05-08 02:49 57.50119 -172.94449 35084 ft 480 kts 67°
2026-05-08 02:49 57.52628 -172.83036 35098 ft 480 kts 67°
2026-05-08 02:50 57.55147 -172.71514 35095 ft 481 kts 67°
2026-05-08 02:50 57.57660 -172.59959 35097 ft 482 kts 67°
2026-05-08 02:51 57.60165 -172.48373 35103 ft 482 kts 67°
2026-05-08 02:51 57.62659 -172.36770 35101 ft 482 kts 68°
2026-05-08 02:52 57.65145 -172.25148 35096 ft 482 kts 67°
2026-05-08 02:52 57.67617 -172.13517 35101 ft 482 kts 68°
2026-05-08 02:53 57.70079 -172.01869 35098 ft 482 kts 67°
2026-05-08 02:53 57.72532 -171.90201 35094 ft 482 kts 68°
2026-05-08 02:54 57.74975 -171.78510 35095 ft 482 kts 68°
2026-05-08 02:54 57.76997 -171.68779 35115 ft 482 kts 68°
2026-05-08 02:55 57.80628 -171.51199 35110 ft 482 kts 68°
2026-05-08 02:56 57.83037 -171.39447 35107 ft 483 kts 68°
2026-05-08 02:56 57.85435 -171.27678 35107 ft 483 kts 68°
2026-05-08 02:57 57.87823 -171.15890 35122 ft 483 kts 68°
2026-05-08 02:57 57.90202 -171.04078 35107 ft 483 kts 68°
2026-05-08 02:58 57.92570 -170.92245 35107 ft 484 kts 68°
2026-05-08 02:58 57.94931 -170.80390 35120 ft 484 kts 68°
2026-05-08 02:59 57.97343 -170.68561 35117 ft 484 kts 67°
2026-05-08 02:59 57.99895 -170.56822 35115 ft 484 kts 66°
2026-05-08 03:00 58.02449 -170.45076 35117 ft 484 kts 67°
2026-05-08 03:00 58.04972 -170.33299 35116 ft 484 kts 67°
2026-05-08 03:01 58.07473 -170.21489 35119 ft 484 kts 67°
2026-05-08 03:01 58.09965 -170.09640 35120 ft 484 kts 67°
2026-05-08 03:02 58.12441 -169.97796 35117 ft 484 kts 67°
2026-05-08 03:02 58.14910 -169.85929 35117 ft 484 kts 67°
2026-05-08 03:03 58.17366 -169.74051 35117 ft 484 kts 68°
2026-05-08 03:03 58.19812 -169.62157 35117 ft 484 kts 68°
2026-05-08 03:04 58.22246 -169.50246 35114 ft 484 kts 68°
2026-05-08 03:04 58.24668 -169.38324 35123 ft 484 kts 68°
2026-05-08 03:05 58.27065 -169.26457 35118 ft 484 kts 68°
2026-05-08 03:05 58.29464 -169.14507 35115 ft 484 kts 68°
2026-05-08 03:06 58.31853 -169.02535 35115 ft 484 kts 68°
2026-05-08 03:06 58.34230 -168.90552 35119 ft 484 kts 68°
2026-05-08 03:07 58.36598 -168.78540 35114 ft 485 kts 68°
2026-05-08 03:07 58.38958 -168.66496 35120 ft 485 kts 68°
2026-05-08 03:08 58.41306 -168.54441 35117 ft 485 kts 68°
2026-05-08 03:08 58.43646 -168.42353 35115 ft 485 kts 68°
2026-05-08 03:09 58.45974 -168.30252 35114 ft 485 kts 68°
2026-05-08 03:09 58.48290 -168.18135 35113 ft 485 kts 68°
2026-05-08 03:10 58.50594 -168.06007 35128 ft 486 kts 68°
2026-05-08 03:10 58.52889 -167.93847 35113 ft 486 kts 68°
2026-05-08 03:11 58.55176 -167.81658 35121 ft 487 kts 69°
2026-05-08 03:11 58.57451 -167.69453 35117 ft 487 kts 69°
2026-05-08 03:12 58.59717 -167.57215 35113 ft 487 kts 69°
2026-05-08 03:12 58.61952 -167.45072 35111 ft 487 kts 69°
2026-05-08 03:13 58.64214 -167.32700 35117 ft 487 kts 69°
2026-05-08 03:13 58.66431 -167.20494 35106 ft 488 kts 69°
2026-05-08 03:14 58.68654 -167.08183 35107 ft 487 kts 69°
2026-05-08 03:14 58.70882 -166.95778 35109 ft 487 kts 69°
2026-05-08 03:15 58.73116 -166.83468 35108 ft 487 kts 69°
2026-05-08 03:15 58.75348 -166.71155 35106 ft 487 kts 69°
2026-05-08 03:16 58.77564 -166.58823 35111 ft 487 kts 69°
2026-05-08 03:16 58.79767 -166.46464 35106 ft 487 kts 69°
2026-05-08 03:17 58.81941 -166.34182 35107 ft 487 kts 69°
2026-05-08 03:17 58.84120 -166.21795 35101 ft 487 kts 70°
2026-05-08 03:18 58.86285 -166.09400 35103 ft 487 kts 70°
2026-05-08 03:18 58.88442 -165.96986 35097 ft 487 kts 70°
2026-05-08 03:19 58.90590 -165.84553 35104 ft 487 kts 70°
2026-05-08 03:19 58.92732 -165.72109 35095 ft 487 kts 70°
2026-05-08 03:20 58.94862 -165.59648 35087 ft 487 kts 70°
2026-05-08 03:20 58.96979 -165.47178 35087 ft 487 kts 70°
2026-05-08 03:21 58.99082 -165.34700 35082 ft 487 kts 70°
2026-05-08 03:21 59.01175 -165.22198 35084 ft 487 kts 70°
2026-05-08 03:22 59.03255 -165.09682 35091 ft 487 kts 70°
2026-05-08 03:22 59.05323 -164.97152 35075 ft 487 kts 70°
2026-05-08 03:23 59.07377 -164.84614 35076 ft 487 kts 70°
2026-05-08 03:23 59.09418 -164.72072 35067 ft 486 kts 71°
2026-05-08 03:24 59.11444 -164.59533 35072 ft 486 kts 71°
2026-05-08 03:24 59.13457 -164.46987 35078 ft 486 kts 71°
2026-05-08 03:25 59.15460 -164.34411 35062 ft 486 kts 71°
2026-05-08 03:25 59.17451 -164.21815 35067 ft 486 kts 71°
2026-05-08 03:26 59.19432 -164.09196 35057 ft 487 kts 71°
2026-05-08 03:26 59.21402 -163.96548 35061 ft 487 kts 71°
2026-05-08 03:27 59.23361 -163.83886 35051 ft 487 kts 71°
2026-05-08 03:27 59.25294 -163.71289 35064 ft 487 kts 71°
2026-05-08 03:28 59.27231 -163.58577 35058 ft 488 kts 71°
2026-05-08 03:28 59.29157 -163.45840 35047 ft 489 kts 71°
2026-05-08 03:29 59.31074 -163.33071 35047 ft 489 kts 71°
2026-05-08 03:29 59.32978 -163.20282 35043 ft 489 kts 71°
2026-05-08 03:30 59.35812 -163.01064 35053 ft 490 kts 71°
2026-05-08 03:31 59.39557 -162.75326 35030 ft 492 kts 71°
2026-05-08 03:32 59.42341 -162.55928 35033 ft 492 kts 71°
2026-05-08 03:32 59.44183 -162.42967 35020 ft 493 kts 72°
2026-05-08 03:33 59.46043 -162.30007 35020 ft 492 kts 70°
2026-05-08 03:33 59.48164 -162.17212 35026 ft 492 kts 69°
2026-05-08 03:34 59.50359 -162.04435 35021 ft 493 kts 69°
2026-05-08 03:34 59.52534 -161.91610 35032 ft 495 kts 69°
2026-05-08 03:35 59.54684 -161.78696 35027 ft 497 kts 69°
2026-05-08 03:35 59.56818 -161.65729 35030 ft 498 kts 69°
2026-05-08 03:36 59.58944 -161.52717 35030 ft 499 kts 69°
2026-05-08 03:36 59.61060 -161.39674 35030 ft 500 kts 69°
2026-05-08 03:37 59.63171 -161.26575 35013 ft 501 kts 69°
2026-05-08 03:37 59.65272 -161.13438 35016 ft 501 kts 69°
2026-05-08 03:38 59.67361 -161.00277 35029 ft 502 kts 69°
2026-05-08 03:38 59.69429 -160.87154 35020 ft 503 kts 69°
2026-05-08 03:39 59.71500 -160.73909 35020 ft 504 kts 70°
2026-05-08 03:39 59.73561 -160.60625 35025 ft 505 kts 70°
2026-05-08 03:40 59.75614 -160.47291 35032 ft 506 kts 70°
2026-05-08 03:40 59.77658 -160.33905 35025 ft 508 kts 70°
2026-05-08 03:41 59.79693 -160.20476 35024 ft 508 kts 70°
2026-05-08 03:41 59.81377 -160.09279 35014 ft 509 kts 70°
2026-05-08 03:42 59.83395 -159.95768 35004 ft 511 kts 70°
2026-05-08 03:42 59.85407 -159.82190 35007 ft 512 kts 71°
2026-05-08 03:43 59.87409 -159.68556 35002 ft 514 kts 71°
2026-05-08 03:43 59.89406 -159.54849 35001 ft 516 kts 71°
2026-05-08 03:44 59.91395 -159.41092 35014 ft 517 kts 71°
2026-05-08 03:44 59.93373 -159.27289 35004 ft 518 kts 72°
2026-05-08 03:45 59.95337 -159.13456 34988 ft 518 kts 72°
2026-05-08 03:45 59.97286 -158.99616 35004 ft 519 kts 72°
2026-05-08 03:46 59.99223 -158.85740 34979 ft 519 kts 72°
2026-05-08 03:46 60.01147 -158.71843 34975 ft 519 kts 72°
2026-05-08 03:47 60.03057 -158.57925 34993 ft 519 kts 72°
2026-05-08 03:47 60.04951 -158.43993 34981 ft 519 kts 72°
2026-05-08 03:48 60.06832 -158.30040 34982 ft 519 kts 72°
2026-05-08 03:48 60.08699 -158.16061 34976 ft 520 kts 73°
2026-05-08 03:49 60.10558 -158.02026 35021 ft 522 kts 73°
2026-05-08 03:49 60.12411 -157.87905 34999 ft 525 kts 73°
2026-05-08 03:50 60.14255 -157.73711 34991 ft 527 kts 73°
2026-05-08 03:50 60.16090 -157.59459 34990 ft 528 kts 73°
2026-05-08 03:51 60.17912 -157.45166 34988 ft 528 kts 74°
2026-05-08 03:51 60.19721 -157.30844 34985 ft 529 kts 75°
2026-05-08 03:52 60.21517 -157.16491 34996 ft 530 kts 75°
2026-05-08 03:52 60.23299 -157.02109 34993 ft 530 kts 75°
2026-05-08 03:53 60.25056 -156.87781 34990 ft 531 kts 75°
2026-05-08 03:53 60.26809 -156.73343 34990 ft 531 kts 75°
2026-05-08 03:54 60.28546 -156.58893 34985 ft 531 kts 75°
2026-05-08 03:54 60.30268 -156.44427 34985 ft 531 kts 76°
2026-05-08 03:55 60.31976 -156.29928 34989 ft 531 kts 76°
2026-05-08 03:55 60.33671 -156.15396 34991 ft 532 kts 76°
2026-05-08 03:56 60.35349 -156.00853 35026 ft 532 kts 76°
2026-05-08 03:56 60.37016 -155.86251 34994 ft 534 kts 76°
2026-05-08 03:57 60.38668 -155.71626 34974 ft 534 kts 76°
2026-05-08 03:57 60.40305 -155.56971 34992 ft 535 kts 77°
2026-05-08 03:58 60.41929 -155.42279 34993 ft 535 kts 77°
2026-05-08 03:58 60.43539 -155.27555 34997 ft 536 kts 77°
2026-05-08 03:59 60.45134 -155.12802 34999 ft 536 kts 77°
2026-05-08 03:59 60.46702 -154.98132 35000 ft 536 kts 77°
2026-05-08 04:00 60.48267 -154.83337 34998 ft 537 kts 78°
2026-05-08 04:00 60.49817 -154.68522 35000 ft 537 kts 78°
2026-05-08 04:01 60.51613 -154.53819 35006 ft 537 kts 74°
2026-05-08 04:01 60.53629 -154.39224 34997 ft 537 kts 74°
2026-05-08 04:02 60.55614 -154.24608 35001 ft 536 kts 74°
2026-05-08 04:02 60.57535 -154.09966 35004 ft 536 kts 75°
2026-05-08 04:03 60.59419 -153.95305 35015 ft 536 kts 76°
2026-05-08 04:03 60.62222 -153.73255 35013 ft 536 kts 76°
2026-05-08 04:04 60.63158 -153.65844 34194 ft 545 kts 76°
2026-05-08 04:04 60.64096 -153.58385 33407 ft 542 kts 76°
2026-05-08 04:04 60.65026 -153.50943 32332 ft 543 kts 76°
2026-05-08 04:04 60.65955 -153.43472 31319 ft 543 kts 76°
2026-05-08 04:05 60.66867 -153.36072 30745 ft 536 kts 77°
2026-05-08 04:05 60.67770 -153.28731 30110 ft 531 kts 77°
2026-05-08 04:05 60.68660 -153.21470 29392 ft 524 kts 77°
2026-05-08 04:05 60.69533 -153.14305 28751 ft 517 kts 77°
2026-05-08 04:06 60.70390 -153.07237 28205 ft 509 kts 78°
2026-05-08 04:06 60.71231 -153.00262 27658 ft 503 kts 78°
2026-05-08 04:06 60.72062 -152.93345 27054 ft 499 kts 78°
2026-05-08 04:06 60.72881 -152.86502 26486 ft 494 kts 78°
2026-05-08 04:07 60.73689 -152.79710 25929 ft 489 kts 78°
2026-05-08 04:07 60.74485 -152.72986 25370 ft 485 kts 78°
2026-05-08 04:07 60.75272 -152.66307 24825 ft 481 kts 78°
2026-05-08 04:07 60.76039 -152.59774 24295 ft 478 kts 78°
2026-05-08 04:08 60.76819 -152.53095 23735 ft 474 kts 78°
2026-05-08 04:08 60.77571 -152.46639 23153 ft 471 kts 79°
2026-05-08 04:08 60.78323 -152.40152 22568 ft 466 kts 79°
2026-05-08 04:08 60.79065 -152.33723 22022 ft 462 kts 79°
2026-05-08 04:09 60.79798 -152.27348 21462 ft 458 kts 79°
2026-05-08 04:09 60.80520 -152.21037 20972 ft 453 kts 79°
2026-05-08 04:09 60.81228 -152.14786 20469 ft 448 kts 79°
2026-05-08 04:09 60.81877 -152.08577 19948 ft 444 kts 81°
2026-05-08 04:10 60.82481 -152.02405 19467 ft 440 kts 81°
2026-05-08 04:10 60.83076 -151.96194 18951 ft 437 kts 82°
2026-05-08 04:10 60.83657 -151.90113 18447 ft 433 kts 82°
2026-05-08 04:10 60.84230 -151.84155 17888 ft 430 kts 81°
2026-05-08 04:11 60.84807 -151.78175 17339 ft 425 kts 81°
2026-05-08 04:11 60.85378 -151.72251 16844 ft 420 kts 81°
2026-05-08 04:11 60.85940 -151.66411 16328 ft 415 kts 81°
2026-05-08 04:11 60.86494 -151.60625 15817 ft 411 kts 81°
2026-05-08 04:12 60.87040 -151.54903 15305 ft 407 kts 81°
2026-05-08 04:12 60.87576 -151.49237 14806 ft 402 kts 81°
2026-05-08 04:12 60.88240 -151.43701 14302 ft 397 kts 73°
2026-05-08 04:12 60.89230 -151.38437 13804 ft 394 kts 68°
2026-05-08 04:13 60.90317 -151.33333 13469 ft 384 kts 68°
2026-05-08 04:13 60.91363 -151.28403 13332 ft 370 kts 68°
2026-05-08 04:13 60.92341 -151.23615 13172 ft 357 kts 69°
2026-05-08 04:13 60.93257 -151.18976 13030 ft 344 kts 70°
2026-05-08 04:14 60.94127 -151.14490 12885 ft 332 kts 70°
2026-05-08 04:14 60.94964 -151.10151 12747 ft 320 kts 70°
2026-05-08 04:14 60.95731 -151.05909 12466 ft 313 kts 73°
2026-05-08 04:14 60.96390 -151.01680 12146 ft 308 kts 75°
2026-05-08 04:15 60.97018 -150.97503 11816 ft 303 kts 75°
2026-05-08 04:15 60.97642 -150.93390 11485 ft 299 kts 75°
2026-05-08 04:15 60.98265 -150.89338 11178 ft 294 kts 75°
2026-05-08 04:15 60.98880 -150.85350 10872 ft 290 kts 75°
2026-05-08 04:16 60.99488 -150.81416 10560 ft 286 kts 75°
2026-05-08 04:16 61.00076 -150.77540 10251 ft 281 kts 76°
2026-05-08 04:16 61.00548 -150.73720 10109 ft 269 kts 79°
2026-05-08 04:16 61.00963 -150.70044 9969 ft 260 kts 79°
2026-05-08 04:17 61.01373 -150.66369 9680 ft 267 kts 79°
2026-05-08 04:17 61.01797 -150.62589 9385 ft 273 kts 79°
2026-05-08 04:17 61.02228 -150.58778 9078 ft 273 kts 79°
2026-05-08 04:17 61.02658 -150.55005 8776 ft 268 kts 79°
2026-05-08 04:18 61.03079 -150.51307 8472 ft 262 kts 80°
2026-05-08 04:18 61.03492 -150.47696 8193 ft 256 kts 80°
2026-05-08 04:18 61.03895 -150.44160 7903 ft 251 kts 80°
2026-05-08 04:18 61.04293 -150.40654 7661 ft 251 kts 81°
2026-05-08 04:19 61.04692 -150.37111 7390 ft 256 kts 81°
2026-05-08 04:19 61.05142 -150.33538 7084 ft 258 kts 71°
2026-05-08 04:19 61.06215 -150.30628 6768 ft 265 kts 38°
2026-05-08 04:19 61.07832 -150.28717 6472 ft 267 kts 32°
2026-05-08 04:20 61.09453 -150.26833 6139 ft 273 kts 33°
2026-05-08 04:20 61.11127 -150.24842 5776 ft 274 kts 33°
2026-05-08 04:20 61.12768 -150.22891 5430 ft 271 kts 33°
2026-05-08 04:20 61.14411 -150.21027 5089 ft 267 kts 25°
2026-05-08 04:21 61.16241 -150.20522 5037 ft 271 kts 354°
2026-05-08 04:21 61.18081 -150.21290 5017 ft 275 kts 348°
2026-05-08 04:21 61.19954 -150.22115 5013 ft 275 kts 349°
2026-05-08 04:21 61.21809 -150.22905 4990 ft 267 kts 349°
2026-05-08 04:22 61.23575 -150.23658 4980 ft 251 kts 349°
2026-05-08 04:22 61.25233 -150.24455 4983 ft 241 kts 345°
2026-05-08 04:22 61.26756 -150.25324 5012 ft 240 kts 345°
2026-05-08 04:22 61.28369 -150.26256 5003 ft 241 kts 345°
2026-05-08 04:23 61.29987 -150.27182 5003 ft 241 kts 345°
2026-05-08 04:23 61.31604 -150.28101 5012 ft 241 kts 345°
2026-05-08 04:23 61.33227 -150.29021 5011 ft 241 kts 345°
2026-05-08 04:23 61.34849 -150.29940 5020 ft 242 kts 345°
2026-05-08 04:24 61.36477 -150.30880 4869 ft 246 kts 345°
2026-05-08 04:24 61.38140 -150.31636 4559 ft 241 kts
2026-05-08 04:24 61.39703 -150.30809 4374 ft 227 kts 37°
2026-05-08 04:24 61.40720 -150.28500 4210 ft 214 kts 69°
2026-05-08 04:25 61.41269 -150.25583 4131 ft 221 kts 73°
2026-05-08 04:25 61.41755 -150.22494 3967 ft 225 kts 74°
2026-05-08 04:25 61.42214 -150.19406 3796 ft 219 kts 80°
2026-05-08 04:25 61.42129 -150.16363 3722 ft 209 kts 117°
2026-05-08 04:26 61.41191 -150.14081 3627 ft 214 kts 152°
2026-05-08 04:26 61.39829 -150.12889 3553 ft 212 kts 160°
2026-05-08 04:26 61.38425 -150.11900 3460 ft 217 kts 163°
2026-05-08 04:26 61.36976 -150.11030 3366 ft 212 kts 165°
2026-05-08 04:27 61.35598 -150.10249 3341 ft 205 kts 165°
2026-05-08 04:27 61.34185 -150.09451 2978 ft 206 kts 165°
2026-05-08 04:27 61.32854 -150.08700 2723 ft 194 kts 165°
2026-05-08 04:27 61.31612 -150.08000 2499 ft 177 kts 165°
2026-05-08 04:28 61.30477 -150.07360 2288 ft 162 kts 165°
2026-05-08 04:28 61.29386 -150.06743 2091 ft 162 kts 166°
2026-05-08 04:28 61.28290 -150.06126 1896 ft 164 kts 166°
2026-05-08 04:28 61.27196 -150.05510 1725 ft 162 kts 167°
2026-05-08 04:29 61.26110 -150.04900 1608 ft 164 kts 167°
2026-05-08 04:29 61.24999 -150.04274 1358 ft 162 kts 167°
2026-05-08 04:29 61.23924 -150.03669 1095 ft 159 kts 168°
2026-05-08 04:29 61.22888 -150.03088 837 ft 150 kts 167°
2026-05-08 04:30 61.21907 -150.02538 665 ft 146 kts 166°
2026-05-08 04:30 61.20907 -150.01976 422 ft 152 kts 166°
2026-05-08 04:30 61.19882 -150.01404 226 ft 153 kts 163°
2026-05-08 04:30 61.18893 -150.00845 143 ft 134 kts 165°
2026-05-08 04:31 61.18172 -150.00442 126 ft 81 kts 165°
2026-05-08 04:31 61.17804 -150.00242 124 ft 37 kts 168°
2026-05-08 04:31 61.17579 -150.00274 122 ft 18 kts 225°
2026-05-08 04:31 61.17641 -150.00445 127 ft 20 kts 345°
2026-05-08 04:32 61.17796 -150.00529 124 ft 26 kts 345°
2026-05-08 04:32 61.17985 -150.00637 126 ft 29 kts 345°
2026-05-08 04:32 61.18158 -150.00733 128 ft 25 kts 345°
2026-05-08 04:32 61.18329 -150.00829 131 ft 25 kts 345°
2026-05-08 04:33 61.18489 -150.00919 133 ft 23 kts 345°
2026-05-08 04:33 61.18644 -150.01005 139 ft 23 kts 345°
2026-05-08 04:33 61.18799 -150.01092 142 ft 23 kts 345°
2026-05-08 04:33 61.18953 -150.01180 145 ft 23 kts 345°
2026-05-08 04:34 61.19108 -150.01267 149 ft 23 kts 345°
2026-05-08 04:34 61.19260 -150.01352 152 ft 23 kts 345°
2026-05-08 04:34 61.19417 -150.01438 155 ft 23 kts 347°
2026-05-08 04:34 61.19489 -150.01335 155 ft 15 kts 75°
2026-05-08 04:35 61.19522 -150.01083 155 ft 21 kts 75°
2026-05-08 04:35 61.19566 -150.00754 151 ft 27 kts 74°
2026-05-08 04:35 61.19562 -150.00533 146 ft 2 kts 159°
2026-05-08 04:35 61.19527 -150.00521 146 ft 8 kts 167°
2026-05-08 04:36 61.19507 -150.00509 146 ft 1 kts 165°